sat.trackr.live / text

‹ back to catalog

QIANFAN-64

NORAD 62794 · 2025-016K

PAYLOAD ACTIVE UNKNOWN

§ Identity

Operator
Country
PRC
Launch date
2025-01-23
Launch site
TAISC
Launch vehicle
Mass (kg)
RCS (m²)

External: N2YO · Heavens-Above · Gunter

§ Orbital elements

Epoch: 2026-05-25T02:50:35.003616Z

Period
106.59 min
Inclination
88.9720°
Eccentricity
0.0012080
Mean motion
13.51011917 rev/d
Perigee alt
1,059.5 km
Apogee alt
1,077.5 km
Semi-major
7,446.7 km
B*
1.7047e-4
RAAN
86.0666°
Arg perigee
224.1717°
Mean anomaly
135.8470°
Rev number
6,932

§ Raw data

QIANFAN-641 62794U 25016K   26145.11846069  .00000122  00000+0  17047-3 0  99912 62794  88.9720  86.0666 0012080 224.1717 135.8470 13.51011917 69328

JSON: /api/v1/satellites/62794 · /tle

For live sub-satellite position, see the globe view (requires WebGL).

§ Visibility from observer

Set your observer location to see the next 7 days of passes ≥ 10°. The values pass through the URL so the page stays shareable.

No JS? Fill the form by hand. The geolocation button needs JavaScript.